STARLINK-5608, 55353

Orbit data source: Space-Track

STARLINK-5608, 55353 is a payload satellite owned by SpaceX/Seattle (US) in LEO that was launched on Thu, 26 Jan 2023 UTC via an FALCON 9 launch vehicle from the Air Force Eastern Test Range (AFETR). Payload-class satellites include a variety of spacecraft equipped with specific instruments for various scientific and technological missions. These include communications satellites like Starlink; space stations such as the ISS; scientific satellites like the Hubble; Earth observation satellites from companies like Planet Labs, Umbra, and HawkEye 360; GPS; miniature CubeSats for education and research; and military/defense satellites.

Loading next visibility...
Identifier
55353, 2023-013Y
Orbit
LEO
Country
Flag of USUS
Related business
Manufacturer
SpaceX/Seattle
Mission
Operational Commercial Communications
Bus & Motor
STARLINK, Unknown motor
Mass
305 kg wet, ~290 kg dry
Launch date (UTC)
2023-01-26 (3 years ago)
Launch vehicle
FALCON 9
Launch site
Air Force Eastern Test Range (AFETR)
Object type
Payload
Rocket body
Debris
Shape & HBR
Box + 1 Pan, 10.1 m
Radar Cross Section
13.562 m², Large (>1 m²)

Expand to show TLE details & history
Last TLE update: 1 day ago

TLE from 1 day ago
0 STARLINK-5608
1 55353U 23013Y   25348.46133428  .00000786  00000-0  73243-4 0  9997
2 55353  43.0065  43.0236 0001482 264.7735  95.2938 15.02528663158893
Epoch: 2025-12-14T11:04Z
TLE epoch observation values (Epoch: 2025-12-14T11:04:19.281Z)
Latitude
-0.00005°
Longitude
153.56929°
Altitude
558.976 km
Speed
7.584 km/s
True Right ascension
02h 52m 05s
True Declination
0° 00' 00"
Sunlit
Object was in full shadow at epoch
Visualization orbit readout
Latitude
Unknown
Longitude
Unknown
Altitude
Unknown
Speed
Unknown
Apparent Right ascension
Unknown
Apparent Declination
Unknown
Sunlit
N/A
Visualization observer readout
Local Sidereal Time
17:05:14
Azimuth
Unknown
Elevation
Unknown
Doppler factor
Unknown
Orbital elements
Apogee altitude
562.053 km
Perigee altitude
559.997 km
Semi-major axis
6,939.162 km
Eccentricity
0.00015
Inclination
43.0065°
RAAN
43.0236°
Arg. of periapsis
264.7735°
True anomaly
95.31071°
Mean anomaly
95.2938°
Eccentric anomaly
95.30225°
Mean motion
3.75476 °/min
Orbital period
95.88 mins
BSTAR
0.000073243
Loading maneuver chart data...
Computing Atmospheric mass density...
Loading historical data...
Loading historical data...
Loading historical data...
Loading historical data...
Loading historical data...
Loading historical data...
Loading historical data...

Documentation

Showing up to 5 results
|